Simultaneous Nadir Overpasses (SNOs) Predictions

Prediction of SNOs between METOP-A and NOAA-19 Satellite Orbit:

Table of predicted SNOs for the next 14.0 days since TLE Epoch: 4/13/2013
Index Date (METOP-A) Time (METOP-A) Lat,Lon (METOP-A) SZA (METOP-A ) Date (NOAA-19) Time (NOAA-19) Lat,Lon (NOAA-19) SZA (NOAA-19 ) Distance(km) Time Diff (sec)
1 04/19/2013 09:44:36 73.97, 28.08 62.67 04/19/2013 09:43:28 73.99, 25.55 62.79 77.63 68
2 04/19/2013 10:35:29 -73.41,-165.91 117.86 04/19/2013 10:34:16 -73.43,-165.84 117.84 3.04 73
3 04/19/2013 11:26:09 73.41, 1.41 62.13 04/19/2013 11:25:21 73.42, 1.41 62.15 1.44 48
4 04/19/2013 12:16:51 -73.39, 168.71 117.90 04/19/2013 12:16:20 -73.40, 168.71 117.89 0.40 31
5 04/19/2013 13:07:31 73.39, -23.97 62.09 04/19/2013 13:07:25 73.39, -24.03 62.09 2.17 6
6
